星链-4809 (STARLINK-4809 )

导读 | 豆包AI

STARLINK-4809是美国太空探索技术公司 SpaceX 星链星座中的一颗卫星,于2022年9月19日发射升空,属于星链互联网卫星星座组网的组成部分,旨在为全球提供低延迟、高速率的宽带互联网服务。星链系统通过大规模低轨卫星部署,覆盖偏远地区,弥补地面网络覆盖不足,该卫星入轨后参与星座运行,为全球用户提供卫星互联网接入服务。

基本信息
目录编号:
53857
目录名称:
STARLINK-4809
国际标识:
2022-114AR
轨道中心:
EARTH
卫星名称:
星链-4809
卫星全名:
星链-4809 (STARLINK-4809 )
卫星状态:
在轨 (已飞行1273 天)
发射日期:
2022-09-19 UTC
国别 :
美国 (US)
星等 :
--
轨道信息
数据来源 国际轨道数据 AOE轨道数据
星历时间 2026-03-15T03:55:38+0800
12小时前
查看轨道信息
2026-03-13T17:00:00+0800
1天前
查看轨道信息
半长轴 6917.899km 6917.871km
偏心率 0.0001363 0.0003526
轨道倾角 53.217° 53.234°
近地点辐角 91.206° 88.413°
升交点赤经 270.622° 277.156°
平近点角 268.909° 282.485°
近地点 538.819km 537.294km
远地点 540.705km 542.174km
周期 95.438分钟 95.437分钟
每日圈数 15.088342 15.088433
详细信息
固有亮度:
5
最大亮度:
2.5
卫星平台:
Starlink v1.5
覆盖范围:
全球
运营商:
太空探索技术公司
运营商所在国:
美国
制造商(研发单位):
太空探索技术公司
制造商所在国:
美国
使用方式:
暂无
卫星简介
星链(Starlink)计划是由太空探索技术公司(SpaceX)提出的一个巨型低轨卫星互联网星座项目,计划在2019年至2024年间在太空搭建由约1.2万颗卫星组成的“星链”网络,其中1584颗将部署在地球上空550千米处的近地轨道,并从2020年开始工作。该卫星仍在工作。
2D轨道图
3D轨道图
轨道高度分析图
轨道倾角分析图
轨道综合分析图
查看轨道综合分析图